Regional Weather Roundup
Issued by NWS Kansas City/Pleasant Hill, MO

Home | Current Version | Previous Version | Graphics & Text | Print | Product List | Glossary Off
Versions: 1 2 3 4 5 6 7 8 9 10 11 12 13 14 15 16 17 18 19 20 21 22 23 24 25 26 27 28 29 30 31 32 33 34 35 36 37 38 39 40 41 42 43 44 45 46 47 48 49 50

000
ASUS43 KEAX 230610
RWREAX

WEATHER ROUNDUP FOR EASTERN KANSAS AND NORTHWEST MISSOURI
NATIONAL WEATHER SERVICE KANSAS CITY/PLEASANT HILL MO
100 AM CDT TUE MAY 23 2017

KSZ040-057-103>105-MOZ028-029-037-043-230700-
...KANSAS CITY METROPOLITAN AREA...

CITY           SKY/WX    TMP DP  RH WIND       PRES   REMARKS
K.C. INTL      CLOUDY    52  52 100 S7        29.89S FOG
6HR MIN TEMP:  52; 6HR MAX TEMP:  59; 6HR PCP:  0.04;

K.C. DOWNTOWN  PTCLDY    57  55  93 CALM      29.89S
6HR MIN TEMP:  57; 6HR MAX TEMP:  62; 6HR PCP:  0.05;

LEES SUMMIT    CLOUDY    56  56 100 E3        29.89F
6HR MIN TEMP:  56; 6HR MAX TEMP:  60; 6HR PCP:  0.18;

OLATHE - IXD   CLEAR     55  54  96 E5        29.89F
6HR MIN TEMP:  55; 6HR MAX TEMP:  62; 6HR PCP:  0.01;

OLATHE - OJC   PTCLDY    54  54 100 CALM      29.89F
6HR MIN TEMP:  54; 6HR MAX TEMP:  61; 6HR PCP:  0.04;

LAWRENCE       FOG       54  54 100 CALM      29.89F VSB 1/4

$$

MOZ001>008-011>017-020>025-030>033-038>040-044>046-053-054-230700-
...NORTHERN AND CENTRAL MISSOURI...

CITY           SKY/WX    TMP DP  RH WIND       PRES   REMARKS
ST. JOSEPH     CLOUDY    56  56 100 SW8       29.89F FOG
6HR MIN TEMP:  53; 6HR MAX TEMP:  61;

WARRENSBURG    LGT RAIN  55  54  94 CALM      29.91F
WHITEMAN AFB   CLOUDY    57  57 100 NE7       29.89F
6HR MIN TEMP:  56; 6HR MAX TEMP:  61; 6HR PCP:  0.03;

CLINTON        CLOUDY    57  55  94 N6        29.91S
SEDALIA        CLOUDY    57  57 100 NW3       29.92F
6HR MIN TEMP:  57; 6HR MAX TEMP:  70; 6HR PCP:  0.03;

WARSAW         NOT AVBL
CHILLICOTHE      N/A     56  55  97 S3        29.89F
6HR MIN TEMP:  55; 6HR MAX TEMP:  59; 6HR PCP:  0.06;

KIRKSVILLE     CLOUDY    56  55  97 SW3       29.89F
6HR MIN TEMP:  56; 6HR MAX TEMP:  59; 6HR PCP:  0.13;


$$

MOZ041-047>049-056>058-063>065-088>090-097-230700-
...EASTERN AND SOUTHERN MISSOURI...

CITY           SKY/WX    TMP DP  RH WIND       PRES   REMARKS
ST. LOUIS INTL NOT AVBL
SPIRIT OF STL  CLOUDY    64  58  80 NE3       29.89F
COLUMBIA       CLOUDY    57  55  93 E8        29.89F
JEFFERSON CITY CLOUDY    61  54  77 VRB3      29.90F
ROLLA          CLOUDY    59  55  87 SE7       29.89F
OSAGE BEACH    CLOUDY    59  55  87 NE6       29.90F
SPRINGFIELD    CLOUDY    60  51  72 S7        29.87F
BRANSON        PTCLDY    59  50  72 S6        29.90F
JOPLIN         CLOUDY    64  58  80 W5        29.89F
WEST PLAINS    MOCLDY    62  52  69 S5        29.92F

$$

IAZ060-094-KSZ022-034>040-054-083-096-NEZ052-066-093-230700-
...KANSAS...SOUTHEAST NEBRASKA AND IOWA...

CITY           SKY/WX    TMP DP  RH WIND       PRES   REMARKS
TOPEKA         FOG       55  55 100 CALM      29.89S VSB 1/2
6HR MIN TEMP:  53; 6HR MAX TEMP:  62; 6HR PCP:  0.01;

MANHATTAN      CLOUDY    56  54  93 CALM      29.90R
EMPORIA        CLEAR     54  54 100 CALM      29.89S FOG
CHANUTE        PTCLDY    60  55  83 SW6       29.89F
WICHITA        MOCLDY    54  54 100 W5        29.93S FOG
OMAHA          CLOUDY    56  47  71 N12       29.92R
LINCOLN        CLOUDY    56  49  77 N15       29.95S
FALLS CITY     CLOUDY    54  53  97 W6        29.87F
LAMONI         PTCLDY    53  52  96 SW5       29.86F
DES MOINES     CLOUDY    55  53  93 NW6       29.84F

$$




USA.gov is the U.S. government's official web portal to all federal, state and local government web resources and services.